RH
48 41 44 45 44 44 41 42 45 38 29 31 38 41 42 40 38 36 34 31 28 25 24 26 27 25 24 25 26 24 19 11 7 8 9 8 7 7 9 12 15 15 14 15 20 25 26 25 24 23 23 24 26 29 34 41 47 51 54 56 58 58 52
51 40 39 42 43 43 43 45 46 36 29 36 46 46 45 41 38 37 35 33 30 27 26 26 27 27 26 25 25 26 27 23 15 12 12 12 11 11 13 16 17 16 16 18 23 26 26 24 22 23 24 25 26 31 39 48 53 53 53 54 54 49 43
55 46 38 39 41 40 43 48 47 38 33 40 47 46 43 40 38 37 33 29 25 21 20 23 25 27 27 26 26 27 29 29 26 21 20 20 20 19 19 20 18 17 18 20 23 27 26 22 21 24 25 22 25 34 43 47 47 44 42 42 41 37 34
49 48 45 43 41 42 45 48 49 43 38 40 45 46 43 40 38 34 29 24 21 19 18 19 21 24 25 26 26 27 29 31 33 32 31 32 31 28 26 24 20 19 20 21 26 27 23 21 24 25 23 23 32 41 42 37 31 28 27 27 27 27 27
45 47 50 49 46 48 50 48 47 47 44 44 48 50 48 42 37 32 28 24 21 20 19 18 19 21 23 24 24 26 29 31 33 36 38 40 41 37 33 28 23 21 21 24 27 25 22 24 26 26 30 36 41 37 30 24 21 20 21 22 24 25 26
51 49 49 51 49 50 51 47 45 49 54 56 57 58 54 44 37 33 29 26 23 21 19 17 18 19 20 20 20 23 26 30 33 35 39 45 48 44 39 32 26 22 22 26 26 23 23 23 24 32 41 42 34 25 20 19 20 22 23 24 25 28 30
47 47 47 49 48 50 52 49 48 51 56 60 61 60 55 45 40 36 32 29 29 28 23 17 16 17 17 16 16 17 20 24 27 29 34 40 46 48 44 35 26 22 24 26 25 23 22 22 29 39 39 30 22 19 18 20 22 26 27 27 29 31 33
47 46 46 48 47 50 54 55 55 53 52 55 57 56 51 47 44 40 36 37 36 33 26 19 16 17 15 12 11 11 13 15 16 18 21 25 36 47 46 33 24 22 24 25 24 22 22 27 37 37 28 21 19 18 20 24 28 31 32 34 34 33 33
59 50 45 49 51 51 56 61 61 56 52 52 56 58 55 53 51 45 41 42 41 34 25 19 17 18 15 11 8 7 7 8 8 8 10 17 34 46 41 28 23 24 24 24 24 22 25 32 35 29 23 19 18 20 26 31 35 38 40 39 36 34 32
68 57 45 51 60 61 63 65 63 58 53 51 55 59 59 56 54 51 47 45 43 36 27 21 18 16 16 13 9 7 6 6 5 5 9 22 38 41 32 24 23 25 24 23 23 24 26 28 28 25 22 18 19 25 33 40 45 46 45 41 38 37 35
69 62 51 51 61 69 72 69 66 62 56 53 56 60 60 55 51 52 51 47 46 42 36 31 24 17 15 15 11 9 8 7 7 8 15 26 34 32 26 22 23 24 23 23 24 25 24 25 26 24 20 18 24 32 39 46 50 49 47 45 45 45 45
64 65 61 52 50 61 71 70 68 66 62 62 65 65 63 57 51 53 53 49 47 46 43 41 33 20 15 15 13 11 10 9 9 11 15 22 27 26 22 22 22 21 21 23 25 25 25 27 26 21 19 22 28 33 39 45 46 46 46 46 47 50 51
63 66 66 57 48 50 60 66 69 69 66 71 77 73 67 61 52 49 49 48 48 46 44 44 37 23 15 14 13 13 12 10 9 10 11 14 18 19 18 20 21 19 20 24 26 26 27 26 22 20 21 25 29 34 39 42 42 43 46 48 50 52 51
63 68 70 66 55 47 48 57 67 70 65 70 81 77 67 62 56 48 44 46 47 43 41 40 33 21 15 13 13 14 14 14 11 9 9 10 11 12 14 17 19 18 20 23 26 28 27 23 21 24 28 31 35 39 41 42 43 44 46 49 50 48 46
58 66 74 76 66 52 47 50 61 70 68 71 79 76 65 61 61 56 48 46 44 40 38 34 25 17 14 12 13 14 15 16 14 11 9 8 9 10 12 16 17 17 19 24 28 27 24 22 25 30 37 41 43 43 44 45 46 45 46 49 52 51 48
57 62 69 74 73 64 56 59 70 76 75 74 75 71 64 61 64 62 54 48 45 42 38 31 23 19 19 15 12 13 15 14 14 13 10 9 10 11 12 15 15 15 19 26 30 27 25 27 31 36 42 45 45 45 47 47 46 46 50 57 62 62 59
54 56 61 66 71 70 66 70 79 80 76 74 73 68 65 64 64 64 60 54 50 46 40 33 28 26 26 23 16 12 11 11 12 11 9 9 10 10 11 12 12 14 20 25 26 26 31 38 42 44 45 45 45 47 47 46 46 51 57 63 65 64 64
55 57 65 70 71 71 69 71 78 79 74 71 68 63 64 66 63 62 63 61 58 53 43 36 34 32 29 28 24 16 10 9 10 9 9 9 9 9 9 10 11 15 20 23 25 31 39 46 49 49 48 46 47 49 48 48 52 58 61 61 61 62 65
62 61 65 71 72 72 69 68 73 77 73 69 68 66 67 69 66 63 65 65 64 60 48 39 38 37 33 32 30 23 15 10 9 8 10 10 9 9 9 9 11 16 22 28 34 41 46 48 50 50 48 48 51 53 53 56 60 62 63 60 58 62 69
60 60 60 63 67 70 70 68 69 74 73 74 76 75 72 70 67 65 66 66 64 56 46 42 42 40 38 36 35 30 22 14 10 10 11 11 10 10 9 10 14 19 27 36 42 46 48 49 50 49 47 51 55 55 56 62 65 65 64 61 59 65 74
58 59 62 64 64 67 69 66 67 73 79 80 80 78 75 72 69 67 66 66 63 53 42 42 45 44 43 41 38 34 25 17 13 12 12 13 12 11 10 13 18 25 34 41 45 48 49 49 49 47 48 55 59 57 58 64 66 67 66 61 59 65 74
60 55 54 57 58 60 62 63 67 74 80 81 81 80 79 77 73 70 66 65 67 62 50 45 46 46 46 46 43 36 28 20 16 15 15 15 14 14 13 16 23 33 41 45 47 49 50 49 48 47 52 59 59 57 60 64 66 69 69 64 64 70 73
60 54 50 51 54 53 54 60 69 76 80 80 79 78 77 75 72 69 68 68 70 67 57 48 45 44 46 48 48 41 32 25 20 19 20 19 17 17 18 22 30 40 45 46 48 51 52 49 47 49 56 60 57 57 60 63 65 69 69 66 68 74 74
56 58 58 58 58 56 55 57 62 67 70 73 74 71 70 71 71 70 72 72 67 62 55 46 41 43 46 48 51 48 38 29 25 25 24 23 23 22 24 29 37 44 48 48 49 52 52 47 47 53 59 59 55 56 59 62 63 66 68 67 68 72 72
52 55 59 61 61 62 64 65 65 65 65 66 69 68 66 67 69 69 71 70 60 52 51 45 37 40 47 51 54 55 47 36 31 31 30 28 28 28 30 36 42 48 51 50 51 53 50 46 50 58 60 57 54 57 61 63 62 63 64 67 70 72 69
50 51 54 58 61 64 67 70 73 73 71 69 70 73 72 70 66 60 59 61 54 42 40 43 40 40 48 55 58 57 51 44 41 39 37 34 34 38 42 45 49 52 53 52 55 56 51 49 55 59 57 55 56 60 63 62 60 61 64 69 76 76 71
42 47 51 55 59 62 63 64 68 72 74 73 72 76 78 76 71 62 56 56 52 39 33 39 45 46 49 56 58 53 50 51 52 50 46 40 40 45 51 53 54 55 56 58 61 57 53 55 60 58 55 56 58 61 63 60 60 65 71 76 81 79 75
28 34 40 43 48 53 54 54 59 65 70 71 69 71 75 76 74 68 59 52 47 40 38 45 51 53 54 56 55 51 50 54 59 61 56 48 44 47 52 56 58 58 61 64 62 58 59 64 62 55 54 57 60 62 63 63 67 74 77 77 76 74 72
28 29 31 32 32 34 36 40 47 54 60 66 67 67 69 72 73 69 61 52 42 36 44 58 65 65 63 60 55 51 51 55 62 66 62 56 52 52 54 60 62 61 64 66 62 61 67 68 61 57 57 58 61 64 66 68 73 79 78 73 69 67 68
34 35 36 37 35 30 28 29 31 34 39 46 55 61 63 67 73 74 70 66 57 47 51 69 79 76 69 62 57 53 51 53 60 66 66 63 60 60 62 64 63 63 67 69 64 65 70 68 61 58 59 60 65 69 68 68 74 79 76 69 65 65 67
33 37 39 42 44 41 37 33 29 27 28 30 36 45 52 55 62 69 73 77 79 73 68 71 76 77 72 63 54 51 52 53 58 64 68 67 65 67 69 68 66 69 72 67 62 64 68 66 61 59 60 65 71 72 67 66 72 76 72 67 67 68 67
35 38 39 40 42 43 44 43 39 34 33 33 32 34 39 42 45 53 60 65 75 82 82 75 70 70 73 67 58 53 53 53 56 62 67 68 67 70 73 72 72 75 70 62 60 63 64 63 63 63 66 73 76 72 66 66 70 71 68 68 71 70 66
37 40 40 39 38 39 43 47 47 43 39 40 40 38 39 41 41 45 49 53 61 70 76 77 72 67 65 64 63 62 58 54 57 61 63 63 64 67 70 70 69 68 65 63 67 68 65 65 67 67 72 76 75 71 68 68 70 69 67 69 71 69 65
38 41 42 41 38 39 42 46 50 51 47 43 43 44 44 43 43 45 47 49 56 62 64 66 67 64 61 59 55 52 51 53 57 59 57 58 62 65 67 67 66 67 68 70 72 70 67 69 71 72 74 74 70 69 70 70 69 67 63 63 67 68 67
37 37 39 40 38 38 41 45 51 57 54 48 47 49 51 50 48 49 51 51 56 59 55 52 52 55 65 75 69 56 50 51 53 56 57 58 62 65 64 64 70 77 76 69 65 67 70 72 74 75 73 69 67 69 70 69 69 64 57 59 66 70 69
37 35 35 37 36 36 38 42 49 55 56 55 52 51 54 56 54 55 57 57 57 54 48 49 51 45 50 72 84 78 68 59 55 60 64 63 64 67 67 69 77 82 75 63 61 67 73 75 75 73 68 65 67 70 70 71 70 62 56 60 68 72 70
35 34 33 35 38 40 40 39 42 48 52 56 57 55 55 57 55 53 53 54 58 57 48 46 49 39 33 52 76 82 76 65 57 58 63 64 67 70 72 77 82 76 65 61 66 72 74 74 71 66 63 65 69 71 73 74 69 61 60 67 73 75 70
42 39 39 40 42 43 43 41 40 39 38 41 45 45 45 42 40 40 40 40 47 52 46 39 40 37 34 43 59 70 74 69 60 56 60 69 77 80 80 81 76 64 58 65 71 72 71 69 65 61 60 65 70 73 75 73 67 62 67 74 78 77 65
Wind_Speed
23 21 20 21 21 21 20 19 20 21 21 20 19 20 20 20 19 18 17 17 18 19 20 20 20 20 20 20 21 20 19 18 17 16 15 13 12 11 11 11 11 11 12 13 13 12 10 9 9 9 9 9 9 10 11 12 14 16 17 17 17 17 18
24 22 21 20 20 20 20 19 21 23 22 20 20 20 20 20 19 17 17 18 19 20 20 21 22 23 23 22 22 22 21 20 19 18 17 15 14 13 12 12 12 12 13 14 14 12 10 9 9 9 9 9 9 10 11 13 15 16 16 16 16 16 17
24 23 23 22 22 20 19 20 21 22 22 21 21 21 21 20 18 18 18 18 19 21 21 22 24 25 26 25 24 23 23 22 21 20 20 19 17 15 13 13 13 13 14 15 14 12 9 8 8 8 9 9 10 10 11 14 15 14 14 15 16 17 18
24 24 23 23 24 22 20 21 22 22 23 22 21 22 22 20 19 18 18 18 19 20 21 23 24 26 27 27 26 24 24 24 23 23 22 21 19 16 14 14 14 14 16 16 14 12 9 8 7 8 9 9 10 11 12 14 14 13 13 14 16 18 19
20 23 24 24 23 22 21 21 22 23 23 22 22 23 23 21 18 17 18 18 18 19 21 22 23 25 27 28 27 26 25 25 25 25 24 22 19 16 15 16 15 16 17 16 14 11 9 8 7 7 8 9 10 11 12 13 14 14 15 16 18 19 20
16 18 23 26 24 22 21 20 21 22 21 22 23 24 24 20 17 16 17 18 18 19 20 20 21 23 26 27 28 27 26 25 25 26 25 22 19 17 17 17 17 17 18 16 13 10 9 8 7 7 7 8 9 11 13 14 15 16 17 18 19 20 21
17 16 18 24 26 25 22 21 21 22 21 22 24 25 24 20 17 16 16 17 18 19 19 19 20 21 23 26 28 27 26 26 26 27 26 23 20 19 19 18 18 19 19 15 12 10 9 8 7 6 7 8 10 12 13 14 15 17 18 19 20 20 20
21 18 16 20 25 25 23 22 23 23 22 22 22 23 21 19 18 17 16 16 17 18 19 18 19 19 20 23 25 26 26 26 27 27 26 22 19 19 19 19 19 20 19 14 11 10 9 8 7 7 8 9 11 12 13 14 15 17 18 19 20 21 21
23 22 17 18 22 23 22 22 22 22 22 20 19 20 20 20 20 19 17 16 16 17 16 17 17 18 18 19 20 22 24 24 24 24 21 19 17 18 20 20 21 21 18 14 12 11 9 8 8 8 9 10 11 11 12 13 14 16 18 19 20 22 23
22 23 20 17 19 20 21 22 22 22 22 20 19 18 19 20 21 21 20 18 16 16 16 16 18 17 16 16 16 18 19 20 20 19 18 17 17 18 20 21 22 21 18 14 12 11 10 9 9 9 9 10 11 11 11 11 13 16 18 19 20 22 24
23 24 22 19 20 22 24 24 25 24 22 21 20 18 17 18 21 22 22 19 17 17 17 18 19 18 17 15 14 14 15 17 17 17 18 18 18 19 21 22 22 21 17 14 13 12 10 10 10 9 10 11 11 11 11 13 16 18 20 21 22 24 26
26 25 23 21 21 24 29 30 28 26 24 22 21 19 18 19 21 23 23 21 19 19 19 20 21 20 19 17 14 12 14 16 17 17 18 19 20 21 22 23 22 20 17 15 15 13 11 11 11 11 11 11 12 13 13 15 18 20 23 24 25 27 29
26 23 23 23 21 23 31 36 33 28 25 24 23 22 21 21 23 25 24 22 22 22 22 23 23 22 21 19 16 14 15 16 17 18 20 21 23 23 23 23 22 20 18 17 15 14 13 12 12 12 12 12 13 14 14 16 19 22 24 26 27 29 30
27 24 23 25 23 21 27 34 35 32 30 28 26 25 24 23 24 25 25 24 25 25 24 25 24 23 22 22 19 17 17 18 18 19 21 23 24 24 24 23 23 21 19 18 16 15 14 12 12 13 13 14 14 14 15 17 20 22 24 26 28 29 30
29 26 24 25 24 22 24 29 33 34 33 31 30 29 28 25 24 25 25 26 27 26 25 25 23 20 20 22 22 21 21 21 21 21 23 24 24 23 23 23 23 22 20 18 17 16 14 12 13 14 14 14 14 14 16 18 21 23 25 27 29 31 33
32 33 31 29 26 23 23 26 29 32 33 32 32 33 31 27 24 24 25 25 26 27 26 25 22 18 17 19 22 24 26 25 24 24 25 25 24 23 23 23 24 23 20 19 18 16 14 13 14 15 15 15 15 16 18 20 22 25 27 29 31 33 33
35 38 36 30 25 23 24 27 30 33 34 35 36 36 33 29 25 24 25 26 28 29 28 26 23 19 16 17 20 25 28 27 25 26 26 25 25 25 25 25 25 23 21 20 18 16 14 14 14 14 15 15 16 17 19 22 24 26 27 29 31 32 32
32 33 32 30 28 28 29 30 34 36 37 37 38 36 32 30 28 26 27 29 31 32 31 27 25 22 18 18 21 24 27 28 27 26 27 27 27 27 26 26 25 24 21 19 17 16 15 14 13 13 14 15 16 18 20 22 24 25 27 29 31 33 33
33 34 36 36 36 35 33 34 36 39 38 38 37 34 32 32 31 31 32 31 32 34 33 29 27 25 23 22 23 25 27 28 28 27 28 28 29 29 28 27 26 23 21 19 17 17 16 15 14 13 14 15 16 18 21 23 25 27 28 29 31 33 34
40 41 41 43 43 41 38 36 37 39 38 37 35 33 33 34 36 37 36 34 33 34 33 30 28 28 26 25 25 25 27 29 29 28 29 30 31 31 30 28 26 24 22 20 19 19 17 16 16 15 15 16 17 19 21 24 26 28 28 29 31 32 33
46 46 44 45 47 47 44 41 39 39 38 37 36 36 37 39 40 41 41 39 36 35 34 32 30 30 30 28 27 26 27 28 28 29 31 32 33 33 31 28 27 25 23 22 21 20 19 18 17 16 16 17 19 20 22 25 27 28 29 30 32 34 34
46 48 47 47 48 48 49 46 42 40 40 39 40 40 41 44 45 44 43 43 42 41 39 35 32 32 32 32 30 28 28 28 28 30 33 35 35 34 31 29 27 26 24 23 22 22 20 18 17 16 17 18 20 22 24 26 28 29 30 32 34 36 37
42 43 44 45 45 45 46 46 45 44 44 44 44 44 45 47 47 46 44 43 41 42 41 37 33 32 33 34 34 31 30 30 30 31 34 36 36 34 31 29 28 26 25 24 23 21 19 18 17 17 18 19 21 23 25 27 29 31 33 34 35 37 39
45 42 41 41 41 42 42 44 46 47 47 48 49 49 49 50 50 50 48 44 40 39 39 36 34 33 34 35 36 34 33 33 33 33 35 37 36 33 32 30 28 27 25 24 22 20 19 19 18 18 19 21 22 25 27 29 31 33 35 37 38 39 40
48 46 45 44 43 43 44 45 45 46 47 48 49 51 52 53 53 53 52 48 44 41 39 37 36 35 35 36 38 38 37 37 36 35 36 37 35 33 32 31 29 27 26 25 22 20 19 19 18 19 21 22 23 26 28 30 33 35 37 39 41 42 42
55 52 51 50 49 48 48 47 46 46 47 49 50 50 52 55 56 54 52 51 50 46 43 40 38 37 37 38 40 41 40 40 40 38 37 37 35 32 32 31 30 29 28 25 22 20 20 19 20 21 22 22 24 27 29 32 34 37 39 41 42 43 43
59 59 59 58 56 54 52 52 51 50 50 51 52 52 52 54 56 54 50 50 50 48 46 44 42 40 40 42 43 42 42 43 41 39 38 37 34 32 33 33 32 30 28 25 22 22 21 21 21 22 23 24 26 28 31 33 36 38 40 41 42 42 42
51 56 60 63 63 61 59 58 57 57 56 55 55 56 56 57 58 57 53 52 51 50 49 48 46 43 44 46 46 43 43 44 43 41 39 38 36 34 34 34 33 31 28 26 25 24 23 23 23 23 24 25 27 29 32 35 37 38 40 41 40 40 42
46 47 51 55 60 63 64 64 64 63 63 62 61 60 60 60 61 61 60 59 59 56 53 52 51 49 48 49 48 45 44 45 46 44 41 39 37 36 35 36 35 33 31 29 28 27 25 24 24 24 25 27 29 31 33 36 37 39 40 40 40 41 43
46 46 46 46 50 54 58 61 64 65 67 68 68 66 65 64 64 65 64 64 63 61 58 56 54 52 52 51 49 47 46 46 47 47 44 41 40 38 37 39 38 36 34 32 32 31 27 25 26 26 26 28 29 32 35 36 38 39 41 42 42 42 43
46 47 48 47 47 48 50 52 56 59 63 65 67 67 68 69 69 68 66 64 63 63 63 61 57 55 55 54 49 48 49 49 49 50 47 44 42 41 40 41 42 40 38 37 38 36 29 26 27 27 27 29 31 33 35 37 39 41 42 43 43 44 44
49 50 50 50 50 49 50 50 51 53 54 55 56 58 62 67 71 72 71 70 68 65 64 64 62 59 61 60 55 51 51 52 52 53 52 49 48 46 45 45 46 46 45 44 44 38 29 26 28 28 29 31 33 34 35 37 39 41 43 44 44 45 46
53 54 54 53 52 52 53 53 52 51 50 49 49 50 53 57 62 65 68 72 74 71 69 69 68 66 66 68 67 61 56 56 56 56 56 56 54 50 49 50 51 52 50 47 42 35 29 28 29 30 31 34 36 36 36 38 40 41 42 44 44 46 46
54 56 57 56 56 56 56 55 55 55 54 52 52 52 51 52 54 55 56 59 63 67 69 73 76 76 72 73 77 74 65 60 61 60 58 58 57 53 54 56 56 54 49 42 35 32 30 30 31 33 34 36 38 38 38 39 40 41 42 44 45 46 46
51 53 56 58 57 57 57 58 59 59 58 57 57 57 57 57 57 56 55 54 55 57 61 68 76 79 74 68 72 78 75 67 62 61 59 60 60 58 58 60 57 51 43 35 31 29 30 32 34 35 36 38 39 39 39 40 41 41 42 44 45 46 46
50 50 52 55 56 55 55 57 60 62 63 62 62 62 63 63 62 61 61 61 59 58 59 63 70 77 77 67 59 64 72 71 63 62 64 65 63 62 61 60 56 49 39 31 29 29 31 34 36 37 38 40 41 41 41 41 41 42 44 45 45 46 45
51 51 52 54 54 52 51 52 56 59 62 65 66 66 67 67 65 64 64 65 65 64 65 65 67 71 75 73 63 58 64 71 68 66 68 68 65 65 62 55 49 44 36 31 30 32 34 36 38 38 41 43 42 42 42 42 42 44 45 45 46 46 43
48 49 51 52 51 50 49 49 50 51 55 59 62 64 65 65 64 65 66 66 67 68 69 70 68 66 68 73 74 66 63 70 70 67 67 65 62 63 61 53 43 37 33 31 32 34 36 38 40 41 43 44 43 43 43 43 44 45 46 46 46 44 41
Wind_Direction
254 248 241 237 235 234 235 236 239 241 237 234 235 236 237 239 241 244 248 252 253 254 254 253 251 249 248 250 252 253 253 255 255 253 250 248 247 250 256 261 265 271 270 263 257 256 262 274 286 291 293 296 299 302 305 307 308 307 306 306 305 307 312
252 247 242 239 237 238 240 237 237 241 239 233 235 238 240 243 245 247 252 257 260 261 258 255 254 253 250 250 251 251 249 249 251 253 252 250 249 249 252 255 258 262 262 257 254 255 263 276 285 289 292 296 298 300 303 303 304 305 308 310 312 314 318
254 250 246 244 245 245 243 238 238 241 238 233 236 243 247 248 251 254 258 263 266 266 264 258 254 252 251 250 249 248 246 245 246 248 250 250 250 249 249 250 252 256 257 254 253 255 262 273 281 286 293 299 300 301 301 300 302 307 311 313 314 315 317
256 252 250 250 249 247 243 239 238 238 236 234 238 245 249 250 253 259 266 270 271 270 266 261 255 252 250 248 246 243 242 241 242 244 246 248 250 249 247 246 247 251 252 250 251 255 260 266 272 282 293 299 299 298 299 300 304 309 312 311 310 311 312
264 254 248 248 247 244 242 239 238 239 237 234 236 243 248 251 254 263 273 276 276 275 270 265 259 254 250 247 244 241 239 239 241 243 245 247 248 247 243 242 244 248 248 246 248 253 258 260 264 277 290 295 294 294 296 302 307 309 310 308 306 307 309
275 261 247 244 245 243 241 240 241 242 240 234 234 240 246 249 254 263 272 278 280 279 275 268 260 253 250 247 244 241 239 239 241 244 245 244 242 241 240 240 242 245 244 243 243 248 253 258 264 275 285 287 287 291 298 304 307 308 308 306 306 307 310
271 267 250 243 242 240 238 238 240 241 240 236 234 237 241 244 252 259 265 274 280 279 275 269 260 254 250 247 244 241 239 239 241 243 245 242 237 235 237 238 241 242 241 239 240 242 247 256 265 273 276 280 285 293 300 305 307 308 308 309 310 312 313
266 265 253 240 237 236 235 234 236 238 238 235 234 238 241 244 249 256 262 269 274 275 273 267 260 255 253 250 247 243 239 239 240 243 245 240 231 231 234 235 238 240 238 236 236 237 241 249 257 262 270 279 287 293 300 306 308 309 311 313 316 317 317
264 262 255 238 233 232 229 228 231 235 236 233 231 236 241 244 248 252 258 263 267 271 269 262 257 255 255 255 251 245 240 238 238 240 238 228 221 225 231 233 234 236 235 233 233 236 239 242 246 257 271 278 285 293 299 303 306 308 312 315 318 320 322
253 257 255 239 229 228 225 226 229 231 235 233 229 234 242 246 248 249 251 255 262 265 261 258 257 255 254 255 253 247 241 235 232 228 218 210 212 220 227 230 230 231 231 229 231 235 235 238 246 258 267 274 282 289 292 295 300 305 311 315 319 322 324
243 252 253 234 221 221 220 223 229 231 234 235 232 235 244 247 244 244 247 250 254 257 255 255 258 254 248 249 250 248 240 229 220 212 204 202 208 216 224 227 226 227 228 226 229 232 233 239 250 256 262 271 278 279 282 292 301 308 314 319 323 325 325
245 250 251 239 228 222 218 219 224 228 232 237 238 238 241 243 238 237 241 245 248 250 250 252 256 254 246 242 242 241 237 227 214 205 202 202 206 212 219 222 224 226 225 224 227 230 235 242 250 254 260 266 270 273 282 297 308 316 320 323 325 325 324
245 247 254 253 244 230 222 219 220 225 232 234 236 238 240 241 238 236 238 242 244 246 246 248 255 257 248 239 234 233 236 232 220 208 204 204 206 211 214 218 223 225 224 225 228 231 237 244 250 256 260 264 269 277 289 304 314 319 321 322 321 320 320
239 244 255 259 252 237 227 222 220 225 233 233 233 237 240 241 242 241 238 237 239 244 246 249 256 262 255 243 234 231 236 238 231 219 211 209 211 212 214 217 222 225 224 226 229 233 239 246 254 260 264 268 274 283 296 308 313 314 316 316 315 314 314
246 245 248 251 251 243 231 224 222 226 231 232 233 238 240 241 245 245 240 237 240 246 249 253 261 269 265 252 241 236 237 240 239 232 224 221 220 219 218 219 223 226 227 227 230 234 238 246 255 260 264 270 278 289 302 307 307 308 312 314 314 313 311
254 250 247 243 242 245 238 226 222 226 232 234 237 241 242 243 246 246 241 240 244 249 252 255 261 269 274 267 254 245 242 241 241 239 235 231 228 225 221 222 226 229 228 228 231 235 238 240 244 250 258 269 282 295 302 303 305 310 314 316 317 317 314
252 254 253 245 237 242 243 231 223 227 234 238 241 243 244 246 247 245 241 239 242 248 252 254 257 262 272 276 266 254 250 246 243 241 241 237 233 229 227 227 230 231 229 231 235 239 238 236 237 245 258 271 284 293 296 300 307 313 315 317 319 320 320
249 249 248 246 244 246 245 236 228 229 233 237 241 244 247 250 251 249 249 246 244 247 250 251 254 259 264 268 267 262 257 253 246 242 241 239 236 234 233 232 232 231 229 233 239 242 242 240 244 253 264 274 284 290 295 302 310 314 316 318 320 321 322
238 238 237 239 244 247 247 241 235 233 236 240 243 246 249 253 255 256 257 254 248 245 245 247 250 256 260 262 264 265 262 258 250 244 241 241 239 237 236 236 233 229 227 228 233 238 243 247 254 262 271 280 288 295 301 307 311 314 317 318 319 320 320
232 237 239 240 241 242 242 241 239 239 240 242 245 247 249 252 255 257 258 257 251 242 238 241 247 252 257 260 263 264 264 261 255 248 243 241 241 240 239 236 232 226 221 220 226 234 241 248 257 267 278 288 295 299 303 308 311 315 318 319 319 321 320
230 233 237 240 242 243 243 241 239 239 240 242 245 247 249 251 254 256 257 257 255 246 238 239 245 250 254 258 261 262 262 263 260 252 246 243 242 242 240 235 228 223 219 219 225 232 240 249 259 271 281 292 298 300 303 308 312 316 320 320 321 322 322
231 232 235 238 241 245 246 245 241 237 237 240 244 247 250 252 254 256 256 258 258 253 247 245 245 246 251 255 258 259 261 263 263 255 248 245 243 242 239 234 227 223 221 223 227 233 242 252 262 272 284 292 297 299 304 309 314 318 320 320 322 322 321
234 237 239 240 241 241 241 241 241 238 237 238 241 244 247 250 252 254 255 258 257 252 249 248 245 244 248 253 256 258 260 262 263 258 250 245 243 241 238 233 228 226 225 227 231 237 247 256 264 274 285 292 296 300 306 311 315 317 319 319 320 319 319
233 235 238 240 243 244 242 240 240 241 242 242 242 243 245 248 250 252 253 253 251 248 247 246 245 245 248 252 255 258 260 261 262 259 251 245 243 240 237 233 230 228 229 231 234 242 251 257 265 277 286 292 298 303 308 312 315 316 316 317 318 318 316
232 233 234 236 239 244 247 247 246 246 248 249 248 247 247 248 249 250 250 249 246 245 245 245 246 247 247 250 255 258 258 259 260 258 252 246 242 239 236 234 231 230 232 234 238 246 254 260 270 279 287 295 301 305 309 312 313 314 315 317 318 318 317
231 232 234 235 236 239 243 247 249 249 251 253 252 248 247 248 250 249 249 249 248 247 245 245 247 247 245 247 252 254 255 255 256 255 252 246 241 237 234 232 231 232 236 239 245 252 259 267 275 281 290 298 302 306 309 310 311 312 314 316 317 317 317
231 232 234 237 238 239 241 243 245 247 250 252 253 249 245 245 248 249 248 249 250 251 250 249 248 246 243 243 245 247 249 250 250 251 249 244 238 234 234 235 236 238 242 246 251 257 263 271 278 284 292 299 302 305 307 308 309 312 314 315 315 314 314
235 233 234 236 238 240 242 243 244 246 247 249 251 253 250 246 246 247 247 247 250 254 254 251 249 248 244 241 240 241 243 246 246 245 244 243 239 235 237 241 242 244 247 250 253 258 265 272 278 285 293 297 300 303 304 305 308 311 313 314 314 313 313
243 239 236 236 237 239 241 244 245 246 248 248 248 251 253 252 251 251 250 250 251 254 253 248 246 247 246 242 240 238 239 242 244 242 242 243 240 237 239 243 246 247 249 252 255 258 264 272 278 285 291 294 297 300 301 303 307 309 312 313 312 312 313
246 245 243 240 239 238 240 243 245 246 247 249 248 248 250 251 253 254 254 255 254 252 249 246 244 244 244 242 240 238 238 239 241 241 240 240 238 237 239 243 246 248 249 251 253 254 259 270 277 282 289 292 295 297 298 302 306 308 310 311 310 311 312
247 247 247 247 246 245 244 243 243 244 246 248 249 250 250 250 251 252 252 255 255 252 249 248 246 243 241 240 240 240 238 237 240 239 237 237 237 236 237 241 245 246 247 248 249 249 256 268 275 280 287 290 291 293 297 302 305 306 308 310 310 310 311
249 249 250 251 252 253 252 249 245 243 244 245 246 249 251 252 252 252 251 251 251 251 250 251 250 246 241 240 241 242 238 235 237 239 236 234 234 233 234 239 242 242 243 244 244 247 257 270 275 279 285 287 288 290 295 300 302 304 306 309 309 309 311
249 249 251 253 254 256 257 256 253 250 250 250 248 248 251 252 254 255 255 253 252 252 252 252 252 249 244 240 240 243 241 236 234 236 236 235 235 235 235 238 240 240 241 243 244 250 264 273 276 280 283 284 285 289 293 297 300 302 305 307 307 308 310
245 246 249 251 254 256 258 259 258 256 256 259 260 259 258 258 259 260 260 257 254 254 255 254 252 250 248 244 240 239 241 238 233 234 237 238 237 236 236 238 239 239 240 242 248 258 268 273 275 278 280 282 285 288 291 295 298 301 303 304 305 307 309
244 245 246 249 251 254 256 257 257 257 258 261 264 265 265 264 264 265 264 261 258 257 257 256 254 250 247 244 240 237 238 239 236 234 236 238 236 234 235 239 240 239 240 245 255 263 269 272 274 276 277 280 283 285 288 292 295 298 301 303 304 305 308
246 247 248 250 252 254 255 255 255 256 258 260 263 265 265 265 264 265 265 264 262 261 259 258 257 254 248 244 243 240 236 235 234 233 234 235 233 232 234 236 237 238 243 252 259 263 266 268 270 273 276 278 280 282 286 290 294 297 300 301 301 304 307
248 249 249 251 253 254 255 255 254 255 256 258 260 262 263 264 264 263 263 263 263 264 263 260 259 259 251 246 251 252 239 231 230 231 232 233 229 227 230 232 232 237 245 253 257 259 262 265 268 271 274 276 278 282 285 288 292 295 297 298 300 303 305
248 249 250 251 253 254 256 257 258 258 258 257 258 260 262 264 265 264 264 264 261 260 262 261 260 261 256 253 259 260 241 227 227 229 231 231 227 223 224 227 231 238 245 250 253 257 260 264 267 270 273 275 278 281 284 287 291 294 296 298 300 302 302